Butler, PA

1:06 AM EST on December 11, 2017 (GMT -0500)
Butler County-Scholter

Weather History for KBTP - January, 2013

Change the Weather History Date:

Sunday, January 20, 2013

  Actual Average Record
Temperature  
Mean Temperature 32 °F -  
Max Temperature 44 °F 29 °F 55 °F (2006)
Min Temperature 21 °F 16 °F -11 °F (1984)
Degree Days  
Heating Degree Days 32    
Moisture  
Dew Point 16 °F    
Average Humidity 51    
Maximum Humidity 63    
Minimum Humidity 43    
Precipitation  
Precipitation 0.00 in - - ()
Sea Level Pressure  
Sea Level Pressure 29.96 in    
Wind  
Wind Speed 15 mph (WSW)    
Max Wind Speed 25 mph    
Max Gust Speed 39 mph    
Visibility 10 miles    
Events      
Averages and records for this station are not official NWS values.
T = Trace of Precipitation, MM = Missing Value Source: NWS Daily Summary

Daily Weather History Graph

Daily Weather History Graph

Search for Another Location

Airport or City:

Trip Planner

Search our weather history database for the weather conditions in past years. The results will help you decide how hot, cold, wet, or windy it might be!

Date:

Astronomy

Jan. 20, 2013 Rise Set
Actual Time 7:39 AM EST 5:23 PM EST
Civil Twilight 7:09 AM EST 5:52 PM EST
Nautical Twilight 6:35 AM EST 6:26 PM EST
Astronomical Twilight 6:03 AM EST 6:58 PM EST
Moon 12:23 PM EST (1/20) 2:09 AM EST (1/20)
Length of Visible Light 10h 43m
Length of Day
9h 43m
Waxing Gibbous, 66% of the Moon is Illuminated
Jan 20
Waxing Gibbous
Jan 26
Full
Feb 3
Last Quarter
Feb 10
New
Feb 17
First Quarter

Hourly Weather History & Observations

Time (EST) Temp. Windchill Dew Point Humidity Pressure Visibility Wind Dir Wind Speed Gust Speed Precip Events Conditions
12:15 AM 44.6 °F 36.9 °F 23.0 °F 43% 29.80 in 10.0 mi SSW 18.4 mph 26.5 mph N/A   Clear
12:35 AM 44.6 °F 37.8 °F 23.0 °F 43% 29.80 in 10.0 mi SW 15.0 mph 26.5 mph N/A   Scattered Clouds
12:55 AM 44.6 °F 37.4 °F 23.0 °F 43% 29.79 in 10.0 mi SSW 16.1 mph 27.6 mph N/A   Mostly Cloudy
1:15 AM 44.6 °F 38.4 °F 24.8 °F 46% 29.78 in 10.0 mi SSW 12.7 mph 27.6 mph N/A   Mostly Cloudy
1:35 AM 44.6 °F 37.2 °F 24.8 °F 46% 29.77 in 10.0 mi SSW 17.3 mph 29.9 mph N/A   Overcast
1:55 AM 44.6 °F 36.9 °F 24.8 °F 46% 29.77 in 10.0 mi SSW 18.4 mph 27.6 mph N/A   Overcast
2:15 AM 44.6 °F 37.2 °F 24.8 °F 46% 29.77 in 10.0 mi SSW 17.3 mph 27.6 mph N/A   Overcast
2:35 AM 44.6 °F 37.8 °F 24.8 °F 46% 29.77 in 10.0 mi SW 15.0 mph 28.8 mph N/A   Mostly Cloudy
2:55 AM 42.8 °F 34.5 °F 26.6 °F 53% 29.75 in 10.0 mi SSW 18.4 mph 32.2 mph N/A   Partly Cloudy
3:15 AM 42.8 °F 35.4 °F 26.6 °F 53% 29.75 in 10.0 mi SSW 15.0 mph 31.1 mph N/A   Clear
3:35 AM 42.8 °F 33.8 °F 26.6 °F 53% 29.75 in 10.0 mi SSW 21.9 mph 26.5 mph N/A   Clear
3:55 AM 42.8 °F 34.5 °F 26.6 °F 53% 29.74 in 10.0 mi SSW 18.4 mph 27.6 mph N/A   Clear
4:15 AM 42.8 °F 35.4 °F 26.6 °F 53% 29.74 in 10.0 mi SSW 15.0 mph 27.6 mph N/A   Clear
4:35 AM 42.8 °F 35.8 °F 26.6 °F 53% 29.75 in 10.0 mi SSW 13.8 mph 26.5 mph N/A   Scattered Clouds
4:55 AM 42.8 °F 34.8 °F 28.4 °F 57% 29.76 in 10.0 mi SW 17.3 mph 29.9 mph N/A   Overcast
5:15 AM 42.8 °F 34.5 °F 28.4 °F 57% 29.76 in 10.0 mi SW 18.4 mph 32.2 mph N/A   Overcast
5:35 AM 42.8 °F 34.8 °F 28.4 °F 57% 29.76 in 10.0 mi SSW 17.3 mph 25.3 mph N/A   Mostly Cloudy
5:55 AM 42.8 °F 34.5 °F 28.4 °F 57% 29.76 in 10.0 mi SW 18.4 mph 33.4 mph N/A   Overcast
6:15 AM 42.8 °F 34.3 °F 28.4 °F 57% 29.77 in 10.0 mi WSW 19.6 mph 26.5 mph N/A   Overcast
6:35 AM 42.8 °F 33.3 °F 24.8 °F 49% 29.79 in 10.0 mi WSW 24.2 mph 35.7 mph N/A   Overcast
6:55 AM 41.0 °F 30.7 °F 21.2 °F 45% 29.81 in 10.0 mi WSW 25.3 mph 39.1 mph N/A   Overcast
7:15 AM 39.2 °F 29.6 °F 21.2 °F 49% 29.83 in 10.0 mi WSW 19.6 mph 31.1 mph N/A   Mostly Cloudy
7:35 AM 37.4 °F 27.5 °F 19.4 °F 48% 29.84 in 10.0 mi West 18.4 mph 29.9 mph N/A   Mostly Cloudy
7:55 AM 37.4 °F 27.2 °F 19.4 °F 48% 29.87 in 10.0 mi West 19.6 mph 28.8 mph N/A   Scattered Clouds
8:15 AM 37.4 °F 28.9 °F 19.4 °F 48% 29.89 in 10.0 mi West 13.8 mph 25.3 mph N/A   Mostly Cloudy
8:35 AM 35.6 °F 25.5 °F 17.6 °F 48% 29.91 in 10.0 mi West 17.3 mph 26.5 mph N/A   Mostly Cloudy
8:55 AM 35.6 °F 24.0 °F 17.6 °F 48% 29.93 in 10.0 mi West 23.0 mph 33.4 mph N/A   Clear
9:15 AM 35.6 °F 27.1 °F 15.8 °F 44% 29.94 in 10.0 mi West 12.7 mph 31.1 mph N/A   Partly Cloudy
9:35 AM 33.8 °F 23.2 °F 17.6 °F 52% 29.95 in 10.0 mi West 17.3 mph 29.9 mph N/A   Scattered Clouds
9:55 AM 33.8 °F 23.2 °F 15.8 °F 48% 29.97 in 10.0 mi West 17.3 mph 34.5 mph N/A   Clear
10:15 AM 32.0 °F 21.2 °F 14.0 °F 48% 29.98 in 10.0 mi West 16.1 mph 29.9 mph N/A   Clear
10:35 AM 32.0 °F 21.2 °F 14.0 °F 48% 30.00 in 10.0 mi West 16.1 mph 24.2 mph N/A   Partly Cloudy
10:55 AM 30.2 °F 20.2 °F 14.0 °F 51% 30.01 in 10.0 mi WNW 12.7 mph 24.2 mph N/A   Scattered Clouds
11:15 AM 30.2 °F 20.2 °F 12.2 °F 47% 30.02 in 10.0 mi WNW 12.7 mph 24.2 mph N/A   Overcast
11:35 AM 30.2 °F 20.2 °F 14.0 °F 51% 30.03 in 10.0 mi West 12.7 mph 23.0 mph N/A   Overcast
11:55 AM 30.2 °F 20.2 °F 10.4 °F 44% 30.02 in 10.0 mi WNW 12.7 mph 25.3 mph N/A   Mostly Cloudy
12:15 PM 28.4 °F 17.0 °F 12.2 °F 51% 30.02 in 10.0 mi West 15.0 mph 27.6 mph N/A   Scattered Clouds
12:35 PM 28.4 °F 17.0 °F 12.2 °F 51% 30.03 in 10.0 mi West 15.0 mph 26.5 mph N/A   Mostly Cloudy
12:55 PM 28.4 °F 16.6 °F 10.4 °F 47% 30.03 in 10.0 mi West 16.1 mph 24.2 mph N/A   Mostly Cloudy
1:15 PM 28.4 °F 16.6 °F 10.4 °F 47% 30.04 in 10.0 mi West 16.1 mph 27.6 mph N/A   Scattered Clouds
1:35 PM 28.4 °F 17.0 °F 8.6 °F 43% 30.04 in 10.0 mi West 15.0 mph 26.5 mph N/A   Clear
1:55 PM 28.4 °F 16.2 °F 8.6 °F 43% 30.05 in 10.0 mi West 17.3 mph 24.2 mph N/A   Partly Cloudy
2:15 PM 26.6 °F 15.2 °F 8.6 °F 47% 30.06 in 10.0 mi West 13.8 mph 23.0 mph N/A   Partly Cloudy
2:35 PM 28.4 °F 19.1 °F 8.6 °F 43% 30.05 in 10.0 mi West 10.4 mph 21.9 mph N/A   Partly Cloudy
2:55 PM 28.4 °F 17.5 °F 8.6 °F 43% 30.06 in 10.0 mi West 13.8 mph 18.4 mph N/A   Partly Cloudy
3:15 PM 28.4 °F 19.1 °F 10.4 °F 47% 30.06 in 10.0 mi West 10.4 mph 17.3 mph N/A   Partly Cloudy
3:35 PM 26.6 °F 14.7 °F 8.6 °F 47% 30.07 in 10.0 mi WSW 15.0 mph 19.6 mph N/A   Partly Cloudy
3:55 PM 26.6 °F 17.5 °F 8.6 °F 47% 30.07 in 10.0 mi West 9.2 mph 17.3 mph N/A   Clear
4:15 PM 26.6 °F 16.2 °F 8.6 °F 47% 30.06 in 10.0 mi WSW 11.5 mph - N/A   Clear
4:35 PM 26.6 °F 18.2 °F 8.6 °F 47% 30.07 in 10.0 mi West 8.1 mph 16.1 mph N/A   Clear
4:55 PM 26.6 °F 19.1 °F 8.6 °F 47% 30.08 in 10.0 mi WNW 6.9 mph 16.1 mph N/A   Clear
5:15 PM 24.8 °F 16.9 °F 8.6 °F 50% 30.10 in 10.0 mi West 6.9 mph - N/A   Clear
5:35 PM 24.8 °F 17.9 °F 8.6 °F 50% 30.09 in 10.0 mi WNW 5.8 mph - N/A   Clear
5:55 PM 24.8 °F 14.6 °F 8.6 °F 50% 30.10 in 10.0 mi West 10.4 mph 18.4 mph N/A   Clear
6:15 PM 24.8 °F 16.1 °F 8.6 °F 50% 30.11 in 10.0 mi West 8.1 mph - N/A   Clear
6:35 PM 23.0 °F 15.8 °F 10.4 °F 59% 30.10 in 10.0 mi West 5.8 mph - N/A   Clear
6:55 PM 23.0 °F 13.1 °F 8.6 °F 54% 30.10 in 10.0 mi West 9.2 mph - N/A   Clear
7:15 PM 23.0 °F 13.9 °F 8.6 °F 54% 30.11 in 10.0 mi WNW 8.1 mph - N/A   Clear
7:35 PM 23.0 °F 13.9 °F 8.6 °F 54% 30.12 in 10.0 mi West 8.1 mph - N/A   Clear
7:55 PM 21.2 °F 12.6 °F 10.4 °F 63% 30.12 in 10.0 mi West 6.9 mph - N/A   Clear
8:15 PM 21.2 °F 13.6 °F 10.4 °F 63% 30.12 in 10.0 mi West 5.8 mph - N/A   Mostly Cloudy
8:35 PM 23.0 °F 14.7 °F 8.6 °F 54% 30.12 in 10.0 mi West 6.9 mph - N/A   Overcast
8:55 PM 23.0 °F 14.7 °F 8.6 °F 54% 30.12 in 10.0 mi West 6.9 mph - N/A   Overcast
9:15 PM 21.2 °F 13.6 °F 8.6 °F 58% 30.12 in 10.0 mi West 5.8 mph - N/A   Overcast
9:35 PM 21.2 °F 14.9 °F 8.6 °F 58% 30.11 in 10.0 mi West 4.6 mph - N/A   Mostly Cloudy
9:55 PM 21.2 °F 12.6 °F 10.4 °F 63% 30.11 in 10.0 mi West 6.9 mph - N/A   Mostly Cloudy
10:15 PM 21.2 °F 14.9 °F 10.4 °F 63% 30.11 in 10.0 mi West 4.6 mph - N/A   Clear
10:35 PM 21.2 °F 14.9 °F 10.4 °F 63% 30.10 in 10.0 mi West 4.6 mph - N/A   Partly Cloudy
10:55 PM 21.2 °F 16.4 °F 10.4 °F 63% 30.10 in 10.0 mi West 3.5 mph - N/A   Mostly Cloudy
11:15 PM 21.2 °F 12.6 °F 10.4 °F 63% 30.10 in 10.0 mi WSW 6.9 mph - N/A   Overcast
11:35 PM 21.2 °F 11.7 °F 10.4 °F 63% 30.10 in 10.0 mi West 8.1 mph - N/A   Overcast
11:55 PM 21.2 °F 13.6 °F 10.4 °F 63% 30.09 in 10.0 mi West 5.8 mph - N/A   Mostly Cloudy